This demonstration page uses our WeatherBlox Daily Observations layout. Learn more.

Left ArrowRight Arrow

Hourly Observations for March 4, 2021

Temp ( °F °C ) Dew Point ( °F °C ) Humidity (%) Winds ( mph kmh ) Pressure ( in mb ) Visibility ( mi km ) Precip ( " mm )
2:51 am 02:51 Clear 51 10.6 31 -0.6 46 46 Calm 29.94 1014 10 16.0934 0 0
3:51 am 03:51 Clear 52 11.1 37 2.8 57 57 NW 18 30 29.94 1014 10 16.0934 0 0
4:51 am 04:51 Clear 50 10 36 2.2 59 59 NW 17 28 29.97 1015 10 16.0934 0 0
5:51 am 05:51 Clear 46 7.8 35 1.7 66 66 NW 9 15 30.02 1017 10 16.0934 0 0
6:51 am 06:51 Sunny 45 7.2 35 1.7 68 68 SE 5 7 30.03 1017 10 16.0934 0 0
7:51 am 07:51 Sunny 50 10 35 1.7 57 57 WSW 6 9 30.06 1018 10 16.0934 0 0
8:51 am 08:51 Sunny 54 12.2 36 2.2 51 51 W 10 17 30.08 1019 10 16.0934 0 0
9:51 am 09:51 Sunny 57 13.9 36 2.2 45 45 NW 13 20 30.09 1019 10 16.0934 0 0
10:51 am 10:51 Mostly Sunny 58 14.4 34 1.1 41 41 WNW 12 19 30.11 1020 10 16.0934 0 0
11:51 am 11:51 Partly Cloudy 62 16.7 34 1.1 35 35 WNW 10 17 30.09 1019 10 16.0934 0 0
12:51 pm 12:51 Sunny 63 17.2 33 0.6 33 33 W 10 17 30.07 1018 10 16.0934 0 0
1:51 pm 13:51 Sunny 65 18.3 32 0 29 29 NW 16 26 30.05 1018 10 16.0934 0 0
2:51 pm 14:51 Sunny 66 18.9 31 -0.6 27 27 NW 23 37 30.05 1018 10 16.0934 0 0
3:51 pm 15:51 Sunny 65 18.3 29 -1.7 26 26 NW 21 33 30.04 1017 10 16.0934 0 0
4:51 pm 16:51 Sunny 65 18.3 30 -1.1 27 27 NW 18 30 30.05 1018 10 16.0934 0 0
5:51 pm 17:51 Sunny 62 16.7 30 -1.1 30 30 NW 16 26 30.09 1019 10 16.0934 0 0
6:51 pm 18:51 Clear 59 15 31 -0.6 35 35 NW 12 19 30.11 1020 10 16.0934 0 0
7:51 pm 19:51 Clear 56 13.3 31 -0.6 39 39 NW 10 17 30.12 1020 10 16.0934 0 0
8:51 pm 20:51 Clear 55 12.8 30 -1.1 38 38 NW 13 20 30.13 1020 10 16.0934 0 0
9:51 pm 21:51 Clear 54 12.2 31 -0.6 42 42 NW 14 22 30.13 1020 10 16.0934 0 0
10:51 pm 22:51 Clear 53 11.7 31 -0.6 43 43 NW 13 20 30.14 1021 10 16.0934 0 0
11:51 pm 23:51 Clear 51 10.6 32 0 48 48 NNW 9 15 30.15 1021 10 16.0934 0 0

Powered by AerisWeather